2019-073A (44709 NORAD) Tracking and Keplerian Element Data

This shows tracking and keplerian element data for the satellite.

Feedback or suggestion? Click here.




ElementValue
Catalog44709
Name2019-073A
Epoch Orbit2
Epoch Day309.39904418
Epoch Year2019
RAAN306.4642
Inclination28.51
Eccentricity0.7308494
Argument of Perigee180.0285
Mean Anonmoly169.3086
Mean Motion2.28038828
Decay Rate0.00130753
L11 44709U 19073A 19309.39904418 .00130753 53028-6 68867-2 0 9994
L22 44709 28.5100 306.4642 7308494 180.0285 169.3086 2.28038828 22

Live tracking and technical data element details for 2019-073A (NORAD 44709). 2019-073A can be tracked NOW for your location showing map with azimuth and elevation plus other details from your city location.

Track the satellite on the map from your city or location and see movement details for azimuth, elevation, latitude, longitude, range, height, and movement on the map or in text.







IsCatalogInMostPopularTable: catalog: 44709, numindb: 2
Update: records affected: 1



GetName: 44709 2019-073A

Hit Count: updated at: Thu, 14 Nov 2019 06:21:38 GMT